Capitol Logistics 3257


KRSW
Southwest Florida International Airport
Fort Myers, Florida, US
KMIA
Miami International Airport
Miami, Florida, US

Activity Log

Date Flight Route Aircraft Duration
06/17/2019 CPX657 CYY CYY9 SF34 0h 32m

Route Details

Aircraft Information
Primary: Saab 340AF
Backup: Not Available
Route Data
Distance: 91nm
Sched. Duration: 1h 00m
Avg. Duration: 0h 32m (-68m)
Times Flown: 1
Recm'd Route: CYY CYY9
Planned Altitude: 15,000ft
Origin Wx: KRSW 030353Z 05005KT 10SM SCT070 24/23 A3008 RMK AO2 SLP182 T02440233
Dest. Wx: KMIA 030353Z 05005KT 10SM FEW021 FEW030 BKN095 OVC250 26/23 A3007 RMK AO2 LTG DSNT N TSE24 SLP183 T02560233 $
Notes:

Financial History
Total Freight: 5,440lbs
Average Load: 5,440lbs/flt
Fuel Used: 534lbs
Avg. Fuel Used: 534lbs/flt
Fuel Expense: $433
Avg. Fuel Expense: $433
Avg. Fuel Cost: $0.81/lbs
Total Gross Income: $6,093
Pilot Pay: $149
Total Expenses: $710
Total Revenue: $4,823
Average Revenue: $6,092.80